GW0353 Weather Reports


Display with metric or nautical units.
time (UTC)temp
F
wind
direction
speed
MPH
gust
MPH
rain 1hr
in
rain 24hr
in
rain mn
in
humidity
%
barometer
mb
20260905045058 50 89 0.0 3.0 0.00 0.00 0.00 68 1020.2
20260905044608 51 148 0.0 3.0 0.00 0.00 0.00 68 1020.2
20260905044058 51 113 1.0 3.0 0.00 0.00 0.00 67 1020.1
20260905043558 51 79 1.0 3.0 0.00 0.00 0.00 68 1020.1
20260905043102 51 130 1.0 6.0 0.00 0.00 0.00 68 1020.0
20260905042559 51 128 3.0 6.0 0.00 0.00 0.00 69 1019.9
20260905042058 51 134 1.0 3.0 0.00 0.00 0.00 67 1019.8
20260905041607 51 115 2.0 3.0 0.00 0.00 0.00 66 1020.0
20260905041059 51 170 0.0 3.0 0.00 0.00 0.00 65 1019.9
20260905040558 52 0 0.0 1.0 0.00 0.00 0.00 66 1019.8
20260905040110 52 0 0.0 4.0 0.00 0.00 0.00 65 1019.9
20260905035602 53 0 0.0 5.0 0.00 0.00 0.00 63 1019.8
20260905035058 53 0 2.0 5.0 0.00 0.00 0.00 64 1019.9
20260905034619 54 0 2.0 5.0 0.00 0.00 0.00 64 1019.7
20260905034059 54 76 1.0 5.0 0.00 0.00 0.00 62 1019.7
20260905033558 54 95 4.0 5.0 0.00 0.00 0.00 63 1019.7
20260905033119 54 99 3.0 4.0 0.00 0.00 0.00 62 1019.8
20260905032559 54 92 1.0 4.0 0.00 0.00 0.00 61 1019.7
20260905032058 55 0 0.0 3.0 0.00 0.00 0.00 62 1019.7
20260905031615 55 0 1.0 3.0 0.00 0.00 0.00 62 1019.7
20260905031058 56 150 0.0 8.0 0.00 0.00 0.00 60 1019.7
20260905030558 56 0 1.0 9.0 0.00 0.00 0.00 58 1019.4
20260905030106 57 68 4.0 9.0 0.00 0.00 0.00 57 1019.4
20260905025559 57 80 3.0 9.0 0.00 0.00 0.00 58 1019.2
20260905025102 58 77 3.0 8.0 0.00 0.00 0.00 55 1019.0
20260905024605 59 30 2.0 8.0 0.00 0.00 0.00 51 1018.9
20260905024058 61 51 4.0 8.0 0.00 0.00 0.00 47 1018.8
20260905023558 63 49 0.0 5.0 0.00 0.00 0.00 26 1018.5
20260905023127 64 295 1.0 12.0 0.00 0.00 0.00 25 1018.5
20260905022558 64 133 4.0 12.0 0.00 0.00 0.00 24 1018.5
20260905022059 63 241 1.0 5.0 0.00 0.00 0.00 26 1018.6
20260905021605 64 0 3.0 7.0 0.00 0.00 0.00 26 1018.7
20260905021058 65 128 2.0 7.0 0.00 0.00 0.00 24 1018.6
20260905020558 64 134 2.0 9.0 0.00 0.00 0.00 25 1018.6
20260905020106 65 238 3.0 10.0 0.00 0.00 0.00 24 1018.5
20260905015558 65 165 4.0 11.0 0.00 0.00 0.00 25 1018.6
20260905015058 65 109 4.0 11.0 0.00 0.00 0.00 24 1018.5
20260905014606 66 104 5.0 11.0 0.00 0.00 0.00 23 1018.5
20260905014101 66 127 3.0 13.0 0.00 0.00 0.00 24 1018.6
20260905013557 66 0 1.0 13.0 0.00 0.00 0.00 23 1018.6
20260905013103 67 265 5.0 13.0 0.00 0.00 0.00 23 1018.6
20260905012558 67 165 3.0 7.0 0.00 0.00 0.00 24 1018.5
20260905012101 67 115 3.0 7.0 0.00 0.00 0.00 23 1018.4
20260905011606 68 79 0.0 8.0 0.00 0.00 0.00 22 1018.4
20260905011101 68 268 1.0 8.0 0.00 0.00 0.00 23 1018.3
20260905010559 69 144 4.0 8.0 0.00 0.00 0.00 23 1018.4
20260905010112 70 169 0.0 5.0 0.00 0.00 0.00 23 1018.4
20260905005558 70 0 1.0 7.0 0.00 0.00 0.00 25 1018.4
20260905005101 70 158 1.0 8.0 0.00 0.00 0.00 24 1018.2
20260905004633 70 150 2.0 10.0 0.00 0.00 0.00 22 1018.2
20260905004058 70 153 4.0 10.0 0.00 0.00 0.00 22 1018.3
20260905003600 70 207 2.0 9.0 0.00 0.00 0.00 23 1018.4
20260905003124 70 238 2.0 9.0 0.00 0.00 0.00 24 1018.3
20260905002558 70 257 1.0 18.0 0.00 0.00 0.00 22 1018.3
20260905002058 70 340 4.0 18.0 0.00 0.00 0.00 23 1018.4
20260905001605 70 153 6.0 18.0 0.00 0.00 0.00 22 1018.3
20260905001102 70 226 3.0 14.0 0.00 0.00 0.00 22 1018.3
20260905000558 71 188 2.0 11.0 0.00 0.00 0.00 23 1018.2
20260905000144 71 101 5.0 11.0 0.00 0.00 0.00 23 1018.3
20260904235558 71 219 2.0 12.0 0.00 0.00 0.00 23 1018.2
20260904235057 71 280 4.0 12.0 0.00 0.00 0.00 23 1018.2
20260904234607 71 214 5.0 13.0 0.00 0.00 0.00 24 1018.3
20260904234057 70 226 2.0 13.0 0.00 0.00 0.00 24 1018.1
20260904233602 71 148 4.0 13.0 0.00 0.00 0.00 25 1018.2
20260904233105 71 287 2.0 13.0 0.00 0.00 0.00 22 1018.1
20260904232558 71 221 4.0 14.0 0.00 0.00 0.00 25 1018.2
20260904232101 71 333 5.0 15.0 0.00 0.00 0.00 24 1018.1
20260904231606 71 169 4.0 15.0 0.00 0.00 0.00 24 1018.1
20260904231058 72 82 4.0 15.0 0.00 0.00 0.00 23 1018.2
20260904230558 72 177 4.0 14.0 0.00 0.00 0.00 26 1018.1
20260904230117 71 245 4.0 14.0 0.00 0.00 0.00 26 1018.0
20260904225557 72 71 5.0 11.0 0.00 0.00 0.00 26 1018.1
20260904225101 72 271 3.0 13.0 0.00 0.00 0.00 26 1018.2
20260904224605 72 279 5.0 13.0 0.00 0.00 0.00 26 1018.1
20260904224102 72 139 5.0 12.0 0.00 0.00 0.00 27 1018.1
20260904223601 73 149 4.0 12.0 0.00 0.00 0.00 26 1018.1
20260904223107 73 151 4.0 13.0 0.00 0.00 0.00 26 1018.2
20260904222601 73 155 5.0 13.0 0.00 0.00 0.00 25 1018.1
20260904222057 73 200 2.0 16.0 0.00 0.00 0.00 25 1018.0
20260904221608 73 235 6.0 16.0 0.00 0.00 0.00 24 1018.0
20260904221059 73 286 4.0 13.0 0.00 0.00 0.00 25 1018.0
20260904220559 73 244 3.0 13.0 0.00 0.00 0.00 25 1017.9
20260904220109 73 210 3.0 12.0 0.00 0.00 0.00 24 1018.0
20260904215600 74 172 4.0 12.0 0.00 0.00 0.00 25 1018.2
20260904215058 73 256 3.0 10.0 0.00 0.00 0.00 25 1018.1
20260904214607 73 89 4.0 10.0 0.00 0.00 0.00 26 1018.0
20260904214058 74 207 3.0 10.0 0.00 0.00 0.00 25 1018.1
20260904213558 73 86 3.0 13.0 0.00 0.00 0.00 24 1017.9
20260904213108 73 172 3.0 13.0 0.00 0.00 0.00 26 1018.2
20260904212558 73 307 6.0 24.0 0.00 0.00 0.00 25 1018.0
20260904212058 72 186 10.0 24.0 0.00 0.00 0.00 26 1018.0
20260904211613 74 175 7.0 13.0 0.00 0.00 0.00 25 1017.9
20260904211057 73 205 1.0 5.0 0.00 0.00 0.00 26 1017.9
20260904210559 73 250 2.0 5.0 0.00 0.00 0.00 26 1017.8
20260904210107 74 80 1.0 6.0 0.00 0.00 0.00 25 1017.7
20260904205558 74 285 2.0 7.0 0.00 0.00 0.00 25 1017.6
20260904205057 73 285 2.0 9.0 0.00 0.00 0.00 25 1017.6
20260904204604 73 325 4.0 9.0 0.00 0.00 0.00 25 1017.5
20260904204058 72 299 3.0 9.0 0.00 0.00 0.00 26 1017.6
20260904203558 71 64 2.0 8.0 0.00 0.00 0.00 27 1017.5
20260904203108 71 32 1.0 11.0 0.00 0.00 0.00 27 1017.6
20260904202557 69 348 2.0 13.0 0.00 0.00 0.00 26 1017.5
20260904202058 69 53 1.0 13.0 0.00 0.00 0.00 28 1017.5
20260904201633 69 60 5.0 12.0 0.00 0.00 0.00 27 1017.5
20260904201057 69 181 4.0 15.0 0.00 0.00 0.00 28 1017.5
20260904200558 69 21 6.0 15.0 0.00 0.00 0.00 28 1017.5
20260904200110 69 151 4.0 15.0 0.00 0.00 0.00 29 1017.6
20260904195602 68 51 7.0 15.0 0.00 0.00 0.00 28 1017.6
20260904195059 68 73 4.0 18.0 0.00 0.00 0.00 28 1017.6
20260904194606 68 42 6.0 18.0 0.00 0.00 0.00 28 1017.6
20260904194058 68 92 10.0 18.0 0.00 0.00 0.00 28 1017.7
20260904193558 68 67 6.0 15.0 0.00 0.00 0.00 29 1017.7
20260904193107 68 68 6.0 17.0 0.00 0.00 0.00 31 1017.7
20260904192558 67 53 6.0 17.0 0.00 0.00 0.00 29 1017.7
20260904192100 68 54 4.0 14.0 0.00 0.00 0.00 29 1017.8
20260904191603 67 311 5.0 16.0 0.00 0.00 0.00 30 1017.8
20260904191100 67 44 8.0 16.0 0.00 0.00 0.00 30 1017.7
20260904190602 67 44 5.0 18.0 0.00 0.00 0.00 30 1017.8
20260904190105 68 151 6.0 18.0 0.00 0.00 0.00 30 1017.7
20260904185601 68 154 5.0 15.0 0.00 0.00 0.00 31 1017.7
20260904185101 67 42 5.0 13.0 0.00 0.00 0.00 30 1017.9
20260904184620 67 27 6.0 13.0 0.00 0.00 0.00 30 1017.8
20260904184058 67 114 3.0 12.0 0.00 0.00 0.00 31 1017.9
20260904183601 66 162 6.0 13.0 0.00 0.00 0.00 32 1017.9
20260904183117 67 87 5.0 13.0 0.00 0.00 0.00 33 1017.9
20260904182558 68 146 3.0 11.0 0.00 0.00 0.00 31 1017.9
20260904182057 66 115 4.0 11.0 0.00 0.00 0.00 32 1017.9
20260904181606 66 335 4.0 10.0 0.00 0.00 0.00 32 1017.9
20260904181058 66 125 4.0 14.0 0.00 0.00 0.00 34 1017.9
20260904180558 66 163 6.0 14.0 0.00 0.00 0.00 34 1017.9
20260904180109 66 120 6.0 11.0 0.00 0.00 0.00 33 1018.1
20260904175557 67 80 1.0 5.0 0.00 0.00 0.00 35 1018.1
20260904175059 68 79 2.0 4.0 0.00 0.00 0.00 37 1018.0
20260904174605 68 321 1.0 3.0 0.00 0.00 0.00 36 1018.1
20260904174058 69 0 0.0 3.0 0.00 0.00 0.00 37 1018.1
20260904173557 67 310 0.0 3.0 0.00 0.00 0.00 37 1017.9
20260904173104 66 0 1.0 3.0 0.00 0.00 0.00 38 1017.9
20260904172558 65 314 1.0 3.0 0.00 0.00 0.00 39 1017.9
20260904172059 64 0 0.0 6.0 0.00 0.00 0.00 41 1018.0
20260904171616 64 138 0.0 6.0 0.00 0.00 0.00 40 1018.0
20260904171102 64 37 1.0 5.0 0.00 0.00 0.00 40 1018.1
20260904170558 62 12 1.0 5.0 0.00 0.00 0.00 43 1018.0
20260904170109 62 83 1.0 4.0 0.00 0.00 0.00 44 1018.1
20260904165600 62 45 1.0 4.0 0.00 0.00 0.00 44 1018.1
20260904165101 61 51 0.0 3.0 0.00 0.00 0.00 46 1018.2
20260904164634 60 0 1.0 3.0 0.00 0.00 0.00 45 1018.2
20260904164058 60 103 1.0 4.0 0.00 0.00 0.00 45 1018.2
20260904163558 59 39 1.0 4.0 0.00 0.00 0.00 47 1018.2
20260904163103 59 174 2.0 4.0 0.00 0.00 0.00 48 1018.3
20260904162557 60 87 1.0 3.0 0.00 0.00 0.00 47 1018.3
20260904162057 59 63 0.0 3.0 0.00 0.00 0.00 49 1018.3
20260904161605 58 117 1.0 2.0 0.00 0.00 0.00 49 1018.3
20260904161057 57 104 0.0 3.0 0.00 0.00 0.00 50 1018.3
20260904160558 57 80 1.0 4.0 0.00 0.00 0.00 51 1018.5
20260904160112 57 115 2.0 4.0 0.00 0.00 0.00 52 1018.4
20260904155558 58 71 0.0 4.0 0.00 0.00 0.00 52 1018.5
20260904155057 57 0 1.0 4.0 0.00 0.00 0.00 52 1018.5
20260904154605 56 71 0.0 2.0 0.00 0.00 0.00 53 1018.6
20260904154057 56 0 0.0 4.0 0.00 0.00 0.00 56 1018.6
20260904153558 55 59 1.0 4.0 0.00 0.00 0.00 57 1018.5
20260904153113 55 127 1.0 2.0 0.00 0.00 0.00 58 1018.5
20260904152558 55 49 0.0 3.0 0.00 0.00 0.00 58 1018.5
20260904152057 54 94 1.0 3.0 0.00 0.00 0.00 59 1018.6
20260904151604 53 58 0.0 2.0 0.00 0.00 0.00 60 1018.6
20260904151057 53 58 1.0 2.0 0.00 0.00 0.00 61 1018.5
20260904150558 52 0 0.0 2.0 0.00 0.00 0.00 63 1018.6
20260904150107 51 67 1.0 3.0 0.00 0.00 0.00 63 1018.5
20260904145558 51 0 1.0 3.0 0.00 0.00 0.00 63 1018.4
20260904145059 51 56 0.0 1.0 0.00 0.00 0.00 64 1018.4
20260904144619 50 0 0.0 5.0 0.00 0.00 0.00 66 1018.5
20260904144058 48 0 1.0 5.0 0.00 0.00 0.00 67 1018.4
20260904143558 48 51 1.0 5.0 0.00 0.00 0.00 69 1018.3
20260904143106 47 82 2.0 5.0 0.00 0.00 0.00 70 1018.3
20260904142558 46 46 3.0 4.0 0.00 0.00 0.00 70 1018.2
20260904142101 46 0 0.0 2.0 0.00 0.00 0.00 71 1018.2
20260904141606 46 115 0.0 3.0 0.00 0.00 0.00 70 1018.1
20260904141059 46 82 0.0 4.0 0.00 0.00 0.00 71 1018.2
20260904140600 46 101 2.0 4.0 0.00 0.00 0.00 72 1018.1
20260904140110 45 104 1.0 3.0 0.00 0.00 0.00 73 1018.1
20260904135559 45 0 1.0 3.0 0.00 0.00 0.00 74 1018.1
20260904135100 43 131 0.0 2.0 0.00 0.00 0.00 77 1017.9
20260904134604 44 0 0.0 3.0 0.00 0.00 0.00 76 1018.0
20260904134058 44 153 0.0 3.0 0.00 0.00 0.00 76 1018.0
20260904133600 44 129 2.0 3.0 0.00 0.00 0.00 77 1018.0
20260904133106 44 163 0.0 4.0 0.00 0.00 0.00 74 1017.9
20260904132559 45 0 0.0 4.0 0.00 0.00 0.00 75 1018.1
20260904132059 44 103 0.0 4.0 0.00 0.00 0.00 76 1017.9
20260904131612 44 0 2.0 4.0 0.00 0.00 0.00 76 1017.8
20260904131100 43 157 0.0 2.0 0.00 0.00 0.00 76 1017.9
20260904130558 43 0 0.0 3.0 0.00 0.00 0.00 79 1017.8
20260904130109 42 0 0.0 3.0 0.00 0.00 0.00 76 1017.8
20260904125559 42 0 1.0 4.0 0.00 0.00 0.00 81 1017.7
20260904125059 41 157 0.0 4.0 0.00 0.00 0.00 79 1017.5
20260904124607 41 0 2.0 4.0 0.00 0.00 0.00 80 1017.6
20260904124059 41 0 0.0 3.0 0.00 0.00 0.00 78 1017.5
20260904123558 41 232 0.0 2.0 0.00 0.00 0.00 81 1017.4
20260904123105 41 0 0.0 2.0 0.00 0.00 0.00 80 1017.5
20260904122558 41 0 0.0 3.0 0.00 0.00 0.00 79 1017.5
20260904122101 41 0 0.0 3.0 0.00 0.00 0.00 79 1017.4
20260904121606 41 0 0.0 3.0 0.00 0.00 0.00 80 1017.4
20260904121058 41 0 0.0 2.0 0.00 0.00 0.00 80 1017.4
20260904120559 41 0 0.0 2.0 0.00 0.00 0.00 79 1017.5
20260904120108 41 0 0.0 2.0 0.00 0.00 0.00 78 1017.4
20260904115559 42 0 0.0 2.0 0.00 0.00 0.00 78 1017.6
20260904115059 42 211 0.0 4.0 0.00 0.00 0.00 78 1017.5
20260904114608 42 0 0.0 4.0 0.00 0.00 0.00 79 1017.6
20260904114059 42 181 2.0 4.0 0.00 0.00 0.00 79 1017.8
20260904113558 41 113 0.0 4.0 0.00 0.00 0.00 79 1017.8
20260904113106 41 233 1.0 4.0 0.00 0.00 0.00 80 1017.7
20260904112559 41 0 0.0 2.0 0.00 0.00 0.00 80 1017.6
20260904112058 41 0 1.0 3.0 0.00 0.00 0.00 78 1017.7
20260904111606 41 0 1.0 3.0 0.00 0.00 0.00 77 1017.6
20260904111058 42 152 0.0 3.0 0.00 0.00 0.00 79 1017.7
20260904110558 41 0 1.0 3.0 0.00 0.00 0.00 80 1017.6
20260904110108 41 0 0.0 3.0 0.00 0.00 0.00 78 1017.7
20260904105602 42 162 1.0 3.0 0.00 0.00 0.00 77 1017.7
20260904105059 42 251 1.0 3.0 0.00 0.00 0.00 79 1017.7
20260904104608 42 165 0.0 3.0 0.00 0.00 0.00 78 1017.7
20260904104059 42 0 0.0 3.0 0.00 0.00 0.00 79 1017.9
20260904103558 42 172 0.0 3.0 0.00 0.00 0.00 79 1017.7
20260904103103 42 0 1.0 2.0 0.00 0.00 0.00 79 1017.7
20260904102559 42 174 0.0 2.0 0.00 0.00 0.00 79 1017.7
20260904102102 42 160 1.0 4.0 0.00 0.00 0.00 78 1017.8
20260904101611 42 0 0.0 4.0 0.00 0.00 0.00 78 1017.7
20260904101059 42 115 1.0 4.0 0.00 0.00 0.00 77 1017.7
20260904100558 43 233 0.0 2.0 0.00 0.00 0.00 75 1017.9
20260904100111 43 240 0.0 1.0 0.00 0.00 0.00 78 1017.7
20260904095559 42 0 0.0 3.0 0.00 0.00 0.00 77 1017.8
20260904095058 42 0 1.0 3.0 0.00 0.00 0.00 78 1017.8
20260904094611 43 187 0.0 1.0 0.00 0.00 0.00 76 1017.7
20260904094059 43 197 0.0 7.0 0.00 0.00 0.00 77 1017.8
20260904093559 42 0 3.0 7.0 0.00 0.00 0.00 77 1017.8
20260904093117 43 241 0.0 1.0 0.00 0.00 0.00 75 1017.7
20260904092558 43 0 0.0 0.0 0.00 0.00 0.00 76 1017.9
20260904092058 43 0 0.0 3.0 0.00 0.00 0.00 76 1017.9
20260904091616 43 0 1.0 3.0 0.00 0.00 0.00 74 1017.9
20260904091058 44 0 0.0 3.0 0.00 0.00 0.00 75 1017.9
20260904090558 44 219 0.0 3.0 0.00 0.00 0.00 75 1017.9
20260904090106 44 167 0.0 2.0 0.00 0.00 0.00 73 1018.2
20260904085556 45 0 0.0 3.0 0.00 0.00 0.00 73 1017.9
20260904085058 45 0 0.0 5.0 0.00 0.00 0.00 73 1018.2
20260904084606 45 0 0.0 5.0 0.00 0.00 0.00 74 1018.4
20260904084059 44 124 1.0 5.0 0.00 0.00 0.00 73 1018.3
20260904083557 44 0 0.0 2.0 0.00 0.00 0.00 73 1018.3
20260904083106 44 165 0.0 2.0 0.00 0.00 0.00 72 1018.4
20260904082559 44 0 0.0 2.0 0.00 0.00 0.00 73 1018.3
20260904082057 45 0 0.0 2.0 0.00 0.00 0.00 71 1018.2
20260904081611 45 0 1.0 4.0 0.00 0.00 0.00 71 1018.1
20260904081056 45 213 0.0 6.0 0.00 0.00 0.00 73 1018.3
20260904080559 45 119 3.0 6.0 0.00 0.00 0.00 71 1018.2
20260904080104 45 186 0.0 1.0 0.00 0.00 0.00 70 1018.2
20260904075557 46 0 0.0 2.0 0.00 0.00 0.00 70 1018.2
20260904075057 46 0 0.0 2.0 0.00 0.00 0.00 68 1018.3
20260904074604 47 0 0.0 3.0 0.00 0.00 0.00 67 1018.2
20260904074059 47 134 1.0 3.0 0.00 0.00 0.00 66 1018.4
20260904073557 48 0 0.0 3.0 0.00 0.00 0.00 66 1018.2
20260904073127 48 0 0.0 7.0 0.00 0.00 0.00 65 1018.3
20260904072556 49 149 1.0 7.0 0.00 0.00 0.00 63 1018.3
20260904072056 49 90 4.0 9.0 0.00 0.00 0.00 63 1018.1
20260904071606 49 84 4.0 9.0 0.00 0.00 0.00 63 1018.2
20260904071057 49 71 6.0 9.0 0.00 0.00 0.00 65 1018.4
20260904070600 49 104 2.0 8.0 0.00 0.00 0.00 64 1018.2
20260904070108 49 59 4.0 7.0 0.00 0.00 0.00 63 1018.2
20260904065557 49 107 4.0 8.0 0.00 0.00 0.00 63 1018.3
20260904065057 49 124 2.0 11.0 0.00 0.00 0.00 63 1018.2
20260904064608 50 82 5.0 11.0 0.00 0.00 0.00 63 1018.2
20260904064100 49 86 5.0 11.0 0.00 0.00 0.00 64 1018.3
20260904063559 49 158 4.0 9.0 0.00 0.00 0.00 63 1018.2
20260904063110 49 93 4.0 8.0 0.00 0.00 0.00 63 1018.1
20260904062557 50 122 4.0 9.0 0.00 0.00 0.00 63 1018.2
20260904062057 50 98 6.0 9.0 0.00 0.00 0.00 63 1017.9
20260904061605 50 68 4.0 9.0 0.00 0.00 0.00 63 1017.8
20260904061057 50 115 4.0 9.0 0.00 0.00 0.00 63 1017.9
20260904060600 50 131 4.0 9.0 0.00 0.00 0.00 64 1017.9
20260904060131 50 127 1.0 7.0 0.00 0.00 0.00 62 1017.9
20260904055640 51 21 2.0 12.0 0.00 0.00 0.00 62 1017.8
20260904055058 51 110 2.0 12.0 0.00 0.00 0.00 62 1017.9
20260904054637 50 127 5.0 11.0 0.00 0.00 0.00 63 1017.8
20260904054100 50 110 4.0 11.0 0.00 0.00 0.00 63 1018.0
20260904053559 50 42 4.0 9.0 0.00 0.00 0.00 65 1018.1
20260904053109 51 66 1.0 6.0 0.00 0.00 0.00 66 1018.1
20260904052559 51 126 0.0 6.0 0.00 0.00 0.00 66 1018.1
20260904052059 51 79 4.0 6.0 0.00 0.00 0.00 67 1018.0
20260904051607 50 37 2.0 5.0 0.00 0.00 0.00 66 1018.1
20260904051101 51 308 2.0 6.0 0.00 0.00 0.00 67 1017.9
20260904050559 51 0 2.0 6.0 0.00 0.00 0.00 67 1018.2
20260904045559 51 30 0.0 5.0 0.00 0.00 0.00 66 1018.3